sat.trackr.live / text

‹ back to catalog

YAOGAN-30 03B

NORAD 43029 · 2017-075B

PAYLOAD ACTIVE UNKNOWN

§ Identity

Operator
Country
PRC
Launch date
2017-11-24
Launch site
XICLF
Launch vehicle
Mass (kg)
RCS (m²)

External: N2YO · Heavens-Above · Gunter

§ Orbital elements

Epoch: 2026-09-20T03:14:54.616704Z

Period
95.81 min
Inclination
34.9941°
Eccentricity
0.0004018
Mean motion
15.03025685 rev/d
Perigee alt
554.8 km
Apogee alt
560.4 km
Semi-major
6,935.7 km
B*
1.1932e-4
RAAN
51.3456°
Arg perigee
341.2836°
Mean anomaly
18.7724°
Rev number
48,165

§ Raw data

YAOGAN-30 03B1 43029U 17075B   26263.13535436  .00001610  00000+0  11932-3 0  99932 43029  34.9941  51.3456 0004018 341.2836  18.7724 15.03025685481652

JSON: /api/v1/satellites/43029 · /tle

For live sub-satellite position, see the globe view (requires WebGL).

§ Visibility from observer

Set your observer location to see the next 7 days of passes ≥ 10°. The values pass through the URL so the page stays shareable.

No JS? Fill the form by hand. The geolocation button needs JavaScript.